• Processing (Info)

  • MPEC 2019-K54 : 2019 KV

    The following Minor Planet Electronic Circular may be linked-to from your own Web pages, but must not otherwise be redistributed electronically.

    A form allowing access to any MPEC is at the bottom of this page.


    Read MPEC 2019-K53 Read MPEC 2019-K55


    M.P.E.C. 2019-K54                                Issued 2019 May 27, 14:55 UT
    
         The Minor Planet Electronic Circulars contain information on unusual
             minor planets and routine data on comets.  They are published
        on behalf of Division F of the International Astronomical Union by the
              Minor Planet Center, Smithsonian Astrophysical Observatory,
                              Cambridge, MA 02138, U.S.A.
    
                 Prepared using the Tamkin Foundation Computer Network
    
                                  MPC@CFA.HARVARD.EDU
                URL https://www.minorplanetcenter.net/    ISSN 1523-6714
    
                                        2019 KV
    
    Observations:
         K19K00V* C2019 05 26.21972 14 58 53.52 +02 52 00.4          19.2 GVEK054G96
         K19K00V  C2019 05 26.22531 14 59 01.40 +02 53 21.7                VEK054G96
         K19K00V  C2019 05 26.23090 14 59 09.29 +02 54 42.2          19.4 GVEK054G96
         K19K00V  C2019 05 26.23649 14 59 17.17 +02 56 02.8          19.1 GVEK054G96
         K19K00V  C2019 05 26.26601214 59 57.56 +03 03 01.5          18.7 GVEK054H01
         K19K00V  C2019 05 26.26960115 00 02.67 +03 03 53.6          18.5 GVEK054H01
         K19K00V  C2019 05 26.27991415 00 17.37 +03 06 23.5          19.4 GVEK054H01
         K19K00V  C2019 05 26.28763315 00 28.41 +03 08 15.6          18.6 GVEK054H01
         K19K00V  C2019 05 26.36646 15 02 23.96 +03 27 36.5          19.1 GVEK054I52
         K19K00V  C2019 05 26.36670 15 02 24.31 +03 27 40.0          19.5 GVEK054I52
         K19K00V  C2019 05 26.36694 15 02 24.67 +03 27 43.7          19.0 GVEK054I52
         K19K00V  C2019 05 26.36718 15 02 25.03 +03 27 47.5          18.8 GVEK054I52
         K19K00V KC2019 05 26.85246 15 16 10.44 +05 29 21.0          18.5 RoEK054K88
         K19K00V KC2019 05 26.85643 15 16 16.83 +05 30 23.3          18.8 RoEK054K88
         K19K00V KC2019 05 26.86041 15 16 23.18 +05 31 26.0          18.6 RoEK054K88
         K19K00V KC2019 05 26.99510715 20 09.06 +06 06 36.6          19.1 GVEK054J95
         K19K00V KC2019 05 26.99805615 20 13.91 +06 07 23.4          18.8 GVEK054J95
         K19K00V KC2019 05 27.00086415 20 18.54 +06 08 07.9          18.8 GVEK054J95
         K19K00V  C2019 05 27.14389415 24 54.22 +06 48 04.2          18.4 GVEK054H01
         K19K00V  C2019 05 27.14849215 25 01.97 +06 49 19.5          19.4 GVEK054H01
         K19K00V  C2019 05 27.15892515 25 19.52 +06 52 10.5          18.4 GVEK054H01
         K19K00V  C2019 05 27.16494415 25 29.65 +06 53 48.7          18.7 GVEK054H01
         K19K00V KC2019 05 27.18731215 25 58.90 +06 59 23.3          18.5 VuEK054H21
         K19K00V KC2019 05 27.19007315 26 03.51 +07 00 08.2          18.9 VuEK054H21
         K19K00V KC2019 05 27.19240515 26 07.42 +07 00 46.0          18.9 VuEK054H21
         K19K00V  C2019 05 27.33953 15 30 24.45 +07 41 40.8          19.1 GVEK054I52
         K19K00V  C2019 05 27.34104 15 30 27.01 +07 42 05.6                VEK054I52
         K19K00V  C2019 05 27.34123 15 30 27.36 +07 42 09.6          19.8 GVEK054I52
         K19K00V  C2019 05 27.34287 15 30 30.13 +07 42 35.8          18.8 GVEK054I52
    
    Observer details:
    G96 Mt. Lemmon Survey.  Observer D. C. Fuls.  Measurers B. M. Africano,
        E. J. Christensen, G. A. Farneth, D. C. Fuls, A. R. Gibbs, A. D. Grauer,
        H. Groeller, R. A. Kowalski, S. M. Larson, G. J. Leonard, T. A. Pruyne,
        D. Rankin, R. L. Seaman, F. C. Shelly.  1.5-m reflector + 10K CCD.
    H01 Magdalena Ridge Observatory, Socorro.  Observers W. H. Ryan, E. V. Ryan.
        Measurer W. H. Ryan.  2.4-m f/8.9 Ritchey-Chretien + CCD.
    H21 Astronomical Research Observatory, Westfield.  Observer R. Holmes.
        Measurers S. Foglia, L. Buzzi, T. Linder, R. Holmes.  0.61-m f/4.5
        astrograph + CCD.
    I52 Steward Observatory, Mt. Lemmon Station.  Observer G. J. Leonard.
        Measurers B. M. Africano, E. J. Christensen, G. A. Farneth, D. C. Fuls,
        A. R. Gibbs, A. D. Grauer, H. Groeller, R. A. Kowalski, S. M. Larson,
        G. J. Leonard, T. A. Pruyne, D. Rankin, R. L. Seaman, F. C. Shelly.
        1.0-m reflector + CCD.
    J95 Great Shefford.  Observer P. Birtwhistle.  0.41-m f/6.3
        Schmidt-Cassegrain + CCD.
    K88 GINOP-KHK, Piszkesteto.  Observer K. Sarneczky.  0.60-m Schmidt + CCD.
    
    Orbital elements:
    2019 KV                                                  Earth MOID = 0.0180 AU
    Epoch 2019 Apr. 27.0 TT = JDT 2458600.5                 MPC
    M 338.53894              (2000.0)            P               Q
    n   0.50260865     Peri.   19.93136     -0.19430383     +0.97883760
    a   1.5666888      Node   238.91257     -0.90985768     -0.20430110
    e   0.3473699      Incl.    4.30001     -0.36661290     -0.01174801
    P   1.96           H   26.3           G   0.15           U   6
    Residuals in seconds of arc
    190526 G96  0.3+  0.1+    190526 I52  0.1-  0.2-    190527 H01  0.2-  0.2+
    190526 G96  0.1+  0.5+    190526 I52  0.0   0.1+    190527 H01  0.0   0.2-
    190526 G96  0.0   0.1+    190526 K88  0.1-  0.3+    190527 H21  0.4-  0.4+
    190526 G96  0.3-  0.2-    190526 K88  0.1+  0.1+    190527 H21  0.3-  0.3+
    190526 H01  0.1+  0.1+    190526 K88  0.5-  0.2+    190527 H21  0.1-  0.1+
    190526 H01  0.1+  0.1+    190526 J95  0.2+  0.0     190527 I52  0.1+  0.4-
    190526 H01  0.0   0.1+    190526 J95  0.1+  0.1-    190527 I52  0.1-  0.3-
    190526 H01  0.1+  0.0     190527 J95  0.1+  0.2-    190527 I52  0.3+  0.6+
    190526 I52  0.1-  0.3-    190527 H01  0.1+  0.0     190527 I52  0.2-  0.0
    190526 I52  0.2-  0.3-    190527 H01  0.0   0.0
    
    Ephemeris:
    2019 KV                  a,e,i = 1.57, 0.35, 4                   q = 1.0225
    Date    TT    R. A. (2000) Decl.     Delta      r     Elong.  Phase     V
    2019 04 27    12 20 19.2 -22 10 16   0.1112  1.1052   151.3    25.9    22.9
    ...
    2019 05 12    12 37 38.5 -18 29 52   0.06027 1.0589   143.1    34.9    21.8
    ...
    2019 05 20    13 20 05.4 -12 15 16   0.03591 1.0412   144.5    34.4    20.6
    ...
    2019 05 26    14 53 11.6 +02 03 18   0.02136 1.0316   150.4    29.0    19.3
    2019 05 27    15 20 19.7 +06 12 57   0.01982 1.0303   149.7    29.7    19.1
    2019 05 28    15 51 53.7 +10 50 24   0.01871 1.0291   147.2    32.2    19.1
    ...
    2019 06 03    19 28 42.1 +30 12 19   0.02311 1.0239   114.0    64.8    20.5
    ...
    2019 06 11    21 33 38.2 +30 16 31   0.04364 1.0224    98.1    79.4    22.3
    ...
    2019 06 26    22 28 53.6 +27 17 20   0.08673 1.0364   100.9    74.4    23.7
    
    A. U. Tomatic                (C) Copyright 2019 MPC           M.P.E.C. 2019-K54
    

    Read MPEC 2019-K53 Read MPEC 2019-K55


    MPEC number:

    Enter an MPEC number in one of the following forms:

    • 1997-B01 (the full form)
    • J97B01 (the packed version of the full form)
    • B01 (the abbreviated form)